{"data":{"norad_id":62333,"intl_designator":"2024-241A","name":"PIESAT-2 09","alt_names":[],"object_type":"PAYLOAD","status":"ACTIVE","operator":null,"country":"PRC","launch_date":"2024-12-16","launch_site_code":"TAISC","launch_vehicle":null,"mission":null,"orbit_class":"UNKNOWN","rcs_meters":null,"size_class":null,"mass_kg":null,"dimensions":null,"purposes":[],"wikipedia_slug":null,"has_3d_model":false,"image_url":null,"decayed_at":null,"tle_current":{"epoch":"2026-09-22T23:31:49.575360Z","epoch_age_seconds":97596,"freshness":"FRESH","line1":"1 62333U 24241A   26265.98043490  .00004771  00000+0  25589-3 0  9998","line2":"2 62333  97.5368 212.7298 0002127  93.2663 266.8813 15.15439235 97603","mean_motion":15.15439235,"eccentricity":0.0002127,"inclination_deg":97.5368,"raan_deg":212.7298,"arg_perigee_deg":93.2663,"mean_anomaly_deg":266.8813,"bstar":0.00025589,"rev_number":9760,"period_min":95.021955796202,"perigee_km":518.17824393186,"apogee_km":521.11256056577,"semimajor_km":6897.7824022488,"source":"CELESTRAK","updated_at":"2026-09-23T09:00:21.386786Z"}}}